CW1706 Weather Reports


Display with metric or nautical units.
time (UTC)temp
F
wind
direction
speed
MPH
gust
MPH
rain 1hr
in
rain 24hr
in
rain mn
in
humidity
%
barometer
mb
20260504110338 54 205 5.0 8.0 0.00 0.00 0.00 83 1016.1
20260504100322 54 188 4.0 10.0 0.00 0.00 0.00 82 1015.8
20260504080331 53 202 4.0 9.0 0.00 0.00 0.00 85 1016.3
20260504070327 53 181 5.0 10.0 0.00 0.00 0.00 83 1016.4
20260504050334 46 189 4.0 5.0 0.00 0.00 0.00 80 1016.5
20260504043343 45 182 3.0 6.0 0.00 0.00 0.00 80 1016.4
20260504040325 45 193 3.0 5.0 0.00 0.00 0.00 78 1016.2
20260504033324 45 159 1.0 2.0 0.00 0.00 0.00 76 1015.9
20260504030338 45 132 1.0 3.0 0.00 0.00 0.00 75 1015.9
20260504023319 45 217 0.0 2.0 0.00 0.00 0.00 73 1015.8
20260504020343 46 217 0.0 3.0 0.00 0.00 0.00 71 1015.8
20260504013323 48 217 1.0 2.0 0.00 0.00 0.00 68 1015.5
20260504010357 48 217 0.0 0.0 0.00 0.00 0.00 67 1015.3
20260504003343 50 217 0.0 0.0 0.00 0.00 0.00 64 1015.1
20260504000327 54 217 2.0 3.0 0.00 0.00 0.00 55 1014.7
20260503233357 59 215 0.0 3.0 0.00 0.00 0.00 45 1014.4
20260503230320 61 282 3.0 6.0 0.00 0.00 0.00 40 1014.5
20260503223325 62 312 2.0 5.0 0.00 0.00 0.00 40 1014.4
20260503220332 61 265 3.0 9.0 0.00 0.00 0.00 39 1014.5
20260503213340 61 328 4.0 9.0 0.00 0.00 0.00 41 1014.5
20260503210322 60 292 6.0 11.0 0.00 0.00 0.00 41 1014.5
20260503203327 59 340 6.0 12.0 0.00 0.00 0.00 38 1014.6
20260503200334 59 360 4.0 11.0 0.00 0.00 0.00 42 1015.1
20260503193343 58 313 7.0 14.0 0.00 0.00 0.00 39 1015.3
20260503190330 58 360 7.0 14.0 0.00 0.00 0.00 40 1015.6
20260503183353 57 360 4.0 10.0 0.00 0.00 0.00 42 1015.8
20260503180328 56 360 7.0 17.0 0.00 0.00 0.00 40 1016.1
20260503173335 55 360 6.0 14.0 0.00 0.00 0.00 42 1016.2
20260503170340 55 360 4.0 11.0 0.00 0.00 0.00 45 1016.3
20260503150323 53 296 6.0 15.0 0.00 0.00 0.00 50 1016.4
20260503130331 50 360 7.0 14.0 0.00 0.00 0.00 57 1016.3